Location: Hamburg
(53.5500°N, 10.0000°E)
Time: 02:56:12
(UTC+01:00)

A-11 Canister half - All Passes

Search period start: 25 February 2018 00:00
Search period end: 07 March 2018 00:00
Orbit: 1527 x 1682 km, 47.3° (Epoch: 24 February)

Date Brightness Start Highest point End Pass type
(mag) Time Alt. Az. Time Alt. Az. Time Alt. Az.
25 Feb - 13:37:30 10° SSE 13:42:08 15° SE 13:46:43 10° E daylight
25 Feb - 15:36:29 10° SSW 15:44:59 39° SSE 15:53:20 10° E daylight
25 Feb - 17:39:42 10° WSW 17:48:53 59° S 17:57:56 10° E daylight
25 Feb - 19:44:05 10° W 19:53:04 53° SSW 20:02:00 10° ESE visible
25 Feb - 21:49:03 10° W 21:56:36 29° SW 22:04:11 10° SSE visible
26 Feb - 13:16:25 10° SSE 13:20:40 14° SE 13:24:51 10° E daylight
26 Feb - 15:15:01 10° SSW 15:23:28 37° SSE 15:31:45 10° E daylight
26 Feb - 17:18:08 10° WSW 17:27:19 58° S 17:36:22 10° E daylight
26 Feb - 19:22:31 10° W 19:31:31 54° SSW 19:40:28 10° ESE visible
26 Feb - 21:27:26 10° W 21:35:06 30° SW 21:42:46 10° SSE visible
27 Feb - 12:55:24 10° SSE 12:59:11 13° SE 13:02:56 10° ESE daylight
27 Feb - 14:53:31 10° SSW 15:01:55 36° SSE 15:10:09 10° E daylight
27 Feb - 16:56:33 10° WSW 17:05:46 58° S 17:14:48 10° E daylight
27 Feb - 19:00:56 10° W 19:09:58 55° SSW 19:18:55 10° ESE visible
27 Feb - 21:05:48 10° W 21:13:35 31° SW 21:21:22 10° SSE visible
28 Feb - 12:34:28 10° SE 12:37:43 12° SE 12:40:56 10° ESE daylight
28 Feb - 14:32:04 10° SSW 14:40:24 35° SE 14:48:34 10° E daylight
28 Feb - 16:35:00 10° WSW 16:44:12 57° S 16:53:14 10° E daylight
28 Feb - 18:39:20 10° W 18:48:25 56° SSW 18:57:24 10° ESE visible
28 Feb - 20:44:11 10° W 20:52:04 32° SW 20:59:57 10° SSE visible
01 Mar - 12:13:41 10° SE 12:16:14 11° SE 12:18:47 10° ESE daylight
01 Mar - 14:10:36 10° SSW 14:18:53 34° SE 14:26:58 10° E daylight
01 Mar - 16:13:26 10° WSW 16:22:39 57° SSE 16:31:40 10° E daylight
01 Mar - 18:17:45 10° W 18:26:52 57° SSW 18:35:51 10° ESE visible
01 Mar - 20:22:34 10° W 20:30:33 33° SW 20:38:32 10° SSE visible
01 Mar - 22:31:26 10° WSW 22:33:05 11° WSW 22:34:44 10° SW visible
02 Mar - 11:53:13 10° SE 11:54:46 10° ESE 11:56:19 10° ESE daylight
02 Mar - 13:49:08 10° SSW 13:57:21 33° SE 14:05:22 10° E daylight
02 Mar - 15:51:51 10° WSW 16:01:05 56° SSE 16:10:06 10° E daylight
02 Mar - 17:56:10 10° W 18:05:18 57° SSW 18:14:19 10° ESE daylight
02 Mar - 20:00:57 10° W 20:09:03 35° SW 20:17:06 10° SSE visible
02 Mar - 22:09:01 10° WSW 22:11:38 11° SW 22:14:15 10° SW visible
03 Mar - 13:27:41 10° SSW 13:35:50 32° SE 13:43:46 10° E daylight
03 Mar - 15:30:18 10° WSW 15:39:32 56° SSE 15:48:33 10° E daylight
03 Mar - 17:34:34 10° W 17:43:45 58° S 17:52:47 10° ESE daylight
03 Mar - 19:39:20 10° W 19:47:32 36° SSW 19:55:40 10° SSE visible
03 Mar - 21:46:53 10° WSW 21:50:10 12° SW 21:53:27 10° SSW visible
04 Mar - 13:06:15 10° SSW 13:14:18 31° SE 13:22:10 10° E daylight
04 Mar - 15:08:43 10° WSW 15:17:58 55° SSE 15:26:59 10° E daylight
04 Mar - 17:12:58 10° W 17:22:11 58° S 17:31:14 10° ESE daylight
04 Mar - 19:17:43 10° W 19:26:01 37° SSW 19:34:13 10° SSE visible
04 Mar - 21:24:53 10° W 21:28:42 13° SW 21:32:32 10° SSW visible
05 Mar - 12:44:49 10° SSW 12:52:47 30° SE 13:00:33 10° E daylight
05 Mar - 14:47:10 10° WSW 14:56:24 54° SSE 15:05:25 10° E daylight
05 Mar - 16:51:22 10° W 17:00:38 59° S 17:09:41 10° ESE daylight
05 Mar - 18:56:07 10° W 19:04:30 38° SSW 19:12:46 10° SSE visible
05 Mar - 21:02:57 10° W 21:07:14 14° SW 21:11:31 10° SSW visible
06 Mar - 12:23:24 10° SSW 12:31:16 29° SE 12:38:57 10° E daylight
06 Mar - 14:25:36 10° SW 14:34:50 53° SSE 14:43:51 10° E daylight
06 Mar - 16:29:47 10° W 16:39:04 59° S 16:48:09 10° ESE daylight
06 Mar - 18:34:30 10° W 18:42:58 39° SSW 18:51:19 10° SSE visible
06 Mar - 20:41:05 10° W 20:45:46 15° SW 20:50:26 10° SSW visible
